Wind_Speed
8 8 8 8 9 11 11 12 15 15 17 15 18 19 19 17 16 16 18 19 19 18 18 19 20 20 20 20 20 21 21 22 23 24 24 25 25 25 25 25 25 25 25 24
6 7 8 9 11 12 12 13 15 16 17 16 17 17 17 16 16 16 18 18 18 17 18 20 19 19 20 20 20 21 22 23 24 24 25 25 24 25 24 23 23 23 23 23
7 8 10 11 11 12 12 14 15 15 16 15 16 17 17 16 17 17 18 19 19 18 19 20 20 20 21 21 21 22 23 24 24 25 25 24 24 23 22 22 22 22 22 22
8 9 10 12 12 13 14 14 15 15 17 19 19 19 19 18 17 18 19 19 19 19 19 20 21 21 22 22 22 22 23 23 24 24 23 23 22 21 21 21 22 22 22 22
8 9 11 12 12 12 12 14 14 15 17 19 19 19 20 19 21 20 19 19 19 20 19 20 21 21 22 22 22 22 22 23 23 23 22 21 21 21 20 21 21 21 21 21
9 9 11 11 11 12 12 13 14 16 19 20 20 20 21 21 20 19 19 19 18 20 21 21 21 21 21 22 22 23 23 23 23 22 22 21 21 21 21 21 21 20 21 21
11 11 11 11 11 12 13 13 14 16 19 19 19 21 22 22 21 19 19 18 18 21 22 22 22 22 23 24 24 24 24 24 24 24 23 24 23 22 21 20 20 21 21 22
11 11 12 12 12 12 14 14 15 16 17 16 18 21 21 18 18 19 18 19 20 21 22 23 24 24 24 25 26 26 25 25 25 25 25 24 24 23 22 21 22 22 22 23
10 10 10 11 12 12 13 14 16 17 17 16 18 18 18 17 17 17 18 20 21 22 24 25 25 25 26 26 27 27 27 27 27 26 26 25 25 25 25 24 25 25 24 25
10 11 12 12 11 13 13 14 16 16 16 16 16 18 18 18 17 18 19 21 22 24 25 26 26 27 28 28 28 28 28 28 28 27 27 27 27 27 27 26 26 26 26 27
12 11 11 13 13 14 15 14 16 16 15 16 17 19 18 18 18 19 19 22 24 25 27 26 28 28 28 28 28 28 28 28 28 28 28 28 28 27 27 27 27 27 27 28
14 12 12 13 14 13 14 14 16 17 18 18 20 21 20 20 21 21 22 24 26 26 27 28 27 27 28 28 27 28 28 28 28 28 28 28 28 28 28 27 27 27 27 28
14 13 12 12 14 15 15 15 16 18 19 18 18 20 21 20 21 22 23 24 24 26 26 27 27 27 27 27 27 27 27 27 28 28 29 29 28 28 28 28 28 28 28 28
13 13 13 12 13 13 13 13 15 17 18 18 20 21 22 22 22 23 23 23 24 25 27 27 27 27 27 27 27 27 26 26 26 26 26 26 27 27 27 27 27 27 28 28
12 11 11 11 11 11 11 12 14 16 17 18 19 21 21 21 22 23 23 24 25 26 27 27 27 27 27 27 27 27 25 25 25 25 26 26 26 27 26 26 26 26 27 28
10 9 9 9 8 9 11 12 13 15 16 17 19 20 20 20 21 22 23 24 24 25 25 25 26 26 26 26 26 26 26 26 26 25 25 25 26 26 26 25 25 26 26 26
8 8 8 7 8 9 9 11 12 14 14 16 17 18 19 20 21 22 22 22 23 23 23 23 24 23 24 24 24 24 24 24 24 23 23 24 24 24 24 24 25 25 25 25
7 7 6 6 7 8 9 10 11 12 14 15 16 16 18 19 21 21 21 22 22 22 22 22 22 22 22 23 23 23 24 24 23 23 24 24 24 24 23 23 24 23 22 22
5 5 5 5 6 8 10 10 11 12 12 13 14 15 17 19 20 20 21 21 21 21 21 21 21 21 21 21 21 21 21 21 21 22 22 22 23 22 22 22 22 22 21 21
4 4 4 5 6 8 9 9 9 11 12 13 14 14 16 17 18 19 19 20 20 20 20 20 20 19 19 20 20 20 20 20 20 20 20 20 21 20 20 20 20 19 18 18
4 5 5 6 7 8 7 7 8 10 11 12 13 14 15 16 17 18 18 18 19 19 18 18 17 17 17 18 17 17 17 18 18 17 17 16 16 15 16 17 17 17 16 16
4 5 5 6 6 6 7 7 8 9 10 11 12 13 14 15 16 16 17 17 17 17 16 16 16 16 16 15 15 15 15 15 15 15 14 14 13 14 14 14 14 14 14 13
5 5 5 6 6 6 6 6 7 8 9 10 11 12 13 14 14 15 17 17 17 16 15 15 15 14 14 13 12 12 11 11 11 11 11 12 12 12 12 11 11 10 11 10
4 4 4 4 4 5 5 6 6 7 8 10 11 12 13 14 14 15 16 16 16 16 15 15 14 12 11 10 9 9 9 9 9 9 10 10 10 9 9 9 8 8 8 8
4 3 2 3 3 4 4 5 6 7 8 9 10 11 12 13 14 16 16 16 16 16 14 13 12 11 10 9 8 8 8 8 9 9 9 8 8 8 8 8 7 6 5 5
3 2 2 2 3 3 4 5 6 7 8 9 10 11 12 13 14 15 16 16 16 16 14 13 12 11 9 9 8 8 7 8 8 8 7 6 7 7 6 6 5 4 4 3
Wind_Direction
203 203 210 223 217 217 226 237 234 228 236 230 241 249 247 251 258 261 263 267 270 271 273 277 278 278 278 275 276 277 280 280 282 282 281 283 280 277 277 274 270 269 266 267
208 223 218 216 219 219 218 235 232 231 241 234 241 248 255 250 260 263 266 269 271 274 276 278 278 279 279 280 280 280 282 281 282 284 283 282 280 276 274 273 271 269 267 266
218 220 220 217 218 219 217 230 237 232 242 243 246 252 249 259 269 268 269 271 273 275 275 276 279 279 281 282 283 282 283 284 284 283 282 282 281 278 274 271 268 267 266 265
227 226 220 222 219 222 224 222 233 238 240 243 244 250 250 256 264 267 266 270 274 277 277 278 281 281 282 283 283 282 283 284 284 284 282 280 280 277 274 270 265 264 265 268
226 232 228 226 223 223 225 224 227 234 239 245 251 255 255 255 263 262 262 266 271 275 277 281 284 283 283 284 285 285 285 285 285 285 284 282 281 277 276 273 269 267 269 272
222 231 235 230 219 220 223 227 229 234 241 247 252 253 258 265 267 263 262 265 271 276 279 283 285 284 283 285 285 287 288 289 288 288 285 284 283 282 278 275 272 273 274 276
222 222 227 230 223 225 223 226 236 244 245 251 249 248 256 265 269 266 268 270 278 278 280 283 284 283 285 285 285 286 286 287 288 288 287 286 286 285 280 276 274 275 275 276
238 229 226 231 226 229 228 227 236 250 256 262 252 252 261 257 266 266 271 274 281 281 282 283 284 285 286 286 285 285 285 286 287 286 285 285 286 283 280 277 274 274 275 275
234 242 242 241 236 236 241 236 239 249 250 264 262 260 263 259 265 266 272 277 280 281 282 284 285 286 286 287 287 285 284 284 285 284 284 284 284 281 279 277 275 275 275 275
230 239 239 238 234 234 239 251 244 249 248 261 263 261 265 265 261 270 277 281 282 281 282 284 286 287 286 287 286 284 284 284 283 282 281 283 283 282 279 277 276 276 276 276
237 238 241 244 238 236 234 245 251 251 252 266 270 272 272 273 280 282 281 283 284 284 285 286 288 288 286 286 285 285 283 283 283 282 281 281 281 282 280 278 279 278 278 278
245 238 236 239 244 242 240 246 254 255 256 259 271 275 273 279 281 281 282 283 284 285 286 287 287 287 287 286 285 284 283 282 282 281 281 281 281 280 279 278 278 278 279 280
246 246 240 237 247 248 238 242 252 258 261 265 272 276 277 278 284 282 283 285 285 286 287 288 288 288 287 287 286 286 284 284 282 280 280 280 281 281 280 280 280 279 279 281
245 244 243 248 253 254 248 246 256 262 266 268 272 278 281 282 285 286 286 288 290 288 288 290 290 290 291 288 287 287 286 285 284 283 282 282 282 282 283 284 283 281 281 282
245 243 237 243 254 259 259 255 259 264 268 270 276 280 284 289 289 289 291 293 293 291 290 291 290 290 290 289 287 287 286 286 286 286 285 285 284 284 285 286 286 284 283 283
242 239 230 240 258 260 261 266 267 267 270 272 278 283 287 292 293 293 295 296 296 295 293 292 291 290 289 287 286 285 286 286 286 286 286 287 287 287 286 285 285 284 284 284
239 241 232 231 240 252 264 270 270 273 273 276 280 286 289 292 294 295 296 297 299 299 296 294 293 292 291 291 290 290 288 286 286 286 285 287 287 287 287 285 285 285 284 284
226 230 236 237 247 260 265 268 272 276 278 282 287 290 292 294 296 297 297 298 300 301 300 299 296 295 294 293 293 292 291 290 289 288 288 287 286 286 286 286 286 286 287 286
229 232 233 241 250 258 262 269 277 283 288 291 294 295 296 300 303 303 302 302 302 302 302 301 300 298 295 294 293 294 295 293 290 291 291 290 288 287 289 289 288 288 288 287
233 240 247 254 260 272 269 279 285 292 299 305 305 305 306 308 308 309 309 308 307 306 304 303 302 301 300 299 296 296 295 294 294 294 295 295 294 293 292 292 293 292 291 289
244 243 250 253 264 279 287 292 296 299 309 311 311 313 315 317 317 317 316 316 315 313 310 308 307 305 304 303 301 299 297 297 298 300 301 299 299 300 298 297 297 295 292 288
248 251 255 270 282 283 303 305 310 315 317 319 322 322 322 323 326 326 325 325 324 321 319 316 314 312 308 306 305 303 301 299 300 303 303 304 305 306 304 304 300 295 292 288
242 256 267 274 282 295 304 311 316 325 328 330 332 335 335 334 334 334 334 334 332 330 327 325 322 318 315 314 312 312 311 310 313 313 313 313 312 312 311 308 302 296 292 289
251 257 266 273 284 295 307 319 331 333 335 339 343 344 344 344 342 342 343 343 343 340 338 337 336 332 330 329 327 324 324 329 329 327 325 323 323 324 325 321 312 304 297 294
256 264 283 289 295 310 329 336 340 344 345 348 351 352 351 351 351 351 352 352 352 352 352 352 350 346 346 345 340 339 336 339 339 338 338 341 341 340 338 335 330 324 319 311
241 251 291 306 316 330 342 340 345 348 351 352 353 355 356 357 358 357 358 0 1 2 3 4 4 2 359 356 352 351 347 347 347 349 351 353 355 356 356 355 359 1 357 354
Height
5825 5827 5830 5832 5835 5837 5839 5841 5841 5842 5842 5844 5844 5842 5843 5843 5844 5845 5847 5848 5848 5848 5848 5848 5848 5848 5848 5847 5847 5846 5846 5845 5844 5843 5842 5841 5841 5840 5840 5840 5840 5840 5840 5841
5825 5828 5830 5832 5834 5836 5838 5839 5839 5840 5840 5841 5841 5840 5841 5840 5842 5844 5844 5843 5844 5845 5845 5845 5845 5845 5844 5844 5843 5842 5841 5840 5839 5838 5837 5836 5836 5836 5835 5834 5835 5835 5835 5836
5826 5828 5828 5830 5832 5834 5836 5838 5838 5839 5839 5839 5839 5840 5839 5839 5841 5841 5841 5841 5841 5842 5842 5842 5842 5841 5840 5840 5839 5838 5837 5836 5834 5833 5832 5831 5831 5831 5830 5829 5830 5830 5830 5831
5825 5826 5827 5828 5829 5832 5833 5836 5837 5837 5839 5839 5839 5837 5835 5836 5838 5839 5839 5838 5837 5837 5838 5838 5838 5837 5836 5836 5835 5833 5832 5831 5830 5829 5828 5827 5826 5826 5825 5824 5825 5825 5825 5826
5824 5825 5826 5827 5829 5830 5831 5833 5835 5836 5836 5836 5835 5834 5834 5833 5834 5834 5834 5833 5834 5834 5834 5834 5833 5832 5832 5831 5830 5829 5828 5826 5825 5824 5823 5822 5821 5821 5820 5820 5820 5820 5820 5820
5822 5823 5824 5825 5826 5828 5830 5831 5832 5832 5833 5833 5833 5832 5829 5829 5829 5828 5828 5829 5830 5830 5830 5829 5829 5828 5827 5826 5826 5824 5823 5822 5821 5820 5819 5818 5817 5816 5815 5815 5815 5815 5815 5815
5819 5821 5822 5823 5824 5826 5827 5829 5830 5829 5829 5829 5829 5828 5827 5826 5826 5825 5824 5824 5827 5826 5826 5825 5824 5823 5822 5822 5821 5819 5818 5817 5816 5815 5814 5813 5812 5811 5810 5810 5809 5809 5809 5810
5817 5817 5819 5820 5822 5824 5825 5826 5828 5827 5826 5824 5824 5823 5823 5820 5821 5821 5821 5822 5823 5822 5821 5820 5819 5818 5817 5816 5815 5814 5813 5812 5811 5810 5808 5807 5807 5806 5805 5804 5804 5804 5804 5804
5815 5817 5817 5818 5820 5822 5822 5823 5824 5824 5824 5823 5822 5820 5818 5816 5817 5818 5818 5818 5819 5818 5817 5816 5814 5813 5812 5811 5810 5808 5807 5806 5805 5804 5803 5802 5801 5800 5799 5799 5798 5798 5798 5798
5813 5814 5815 5816 5818 5820 5821 5820 5821 5821 5820 5819 5819 5816 5814 5814 5814 5815 5815 5814 5815 5814 5813 5811 5809 5808 5806 5805 5803 5802 5801 5799 5798 5797 5796 5795 5794 5793 5792 5792 5791 5791 5791 5791
5811 5812 5813 5814 5815 5816 5818 5819 5817 5817 5817 5817 5816 5815 5810 5810 5811 5811 5810 5810 5810 5809 5807 5805 5804 5802 5800 5798 5797 5795 5794 5793 5791 5790 5789 5788 5787 5786 5786 5785 5784 5784 5784 5784
5807 5809 5810 5812 5812 5813 5814 5815 5815 5815 5815 5814 5813 5813 5808 5807 5808 5808 5807 5806 5804 5803 5801 5799 5797 5795 5793 5791 5790 5788 5787 5786 5784 5783 5782 5781 5780 5780 5779 5778 5777 5777 5776 5776
5805 5806 5808 5809 5811 5811 5811 5811 5812 5812 5812 5810 5809 5810 5805 5804 5804 5803 5802 5800 5799 5797 5795 5793 5791 5789 5787 5785 5783 5781 5780 5779 5777 5776 5775 5774 5774 5773 5772 5771 5770 5770 5769 5769
5802 5803 5805 5807 5806 5806 5807 5808 5809 5809 5808 5807 5806 5804 5803 5801 5800 5798 5797 5796 5794 5792 5790 5788 5786 5783 5780 5778 5776 5775 5773 5772 5770 5769 5768 5767 5767 5766 5765 5764 5763 5762 5762 5761
5799 5801 5802 5803 5803 5804 5805 5805 5806 5805 5805 5804 5802 5800 5799 5797 5796 5794 5793 5791 5789 5786 5784 5782 5779 5777 5774 5772 5770 5768 5767 5765 5764 5763 5762 5761 5760 5759 5758 5757 5756 5755 5754 5754
5797 5798 5799 5801 5801 5802 5803 5803 5803 5803 5802 5801 5799 5798 5795 5793 5792 5790 5788 5786 5783 5781 5778 5775 5773 5770 5768 5766 5764 5762 5760 5759 5758 5756 5755 5754 5753 5752 5751 5750 5749 5748 5747 5746
5795 5796 5797 5798 5799 5800 5801 5801 5800 5800 5799 5798 5796 5795 5792 5790 5788 5786 5784 5781 5778 5775 5772 5769 5767 5765 5762 5760 5758 5756 5754 5753 5751 5750 5748 5747 5746 5745 5744 5743 5742 5741 5740 5739
5794 5795 5796 5797 5798 5799 5800 5798 5797 5797 5795 5794 5793 5791 5789 5787 5784 5781 5779 5776 5773 5770 5767 5764 5762 5759 5757 5754 5752 5750 5749 5747 5745 5744 5742 5741 5740 5738 5737 5736 5735 5734 5733 5732
5794 5794 5795 5796 5796 5796 5796 5796 5795 5794 5793 5791 5790 5788 5786 5783 5780 5777 5774 5771 5768 5765 5762 5759 5756 5754 5751 5749 5747 5745 5743 5741 5740 5738 5736 5735 5733 5732 5731 5730 5729 5728 5727 5726
5793 5794 5794 5794 5795 5794 5795 5794 5793 5793 5791 5789 5787 5785 5783 5780 5777 5774 5770 5767 5764 5760 5757 5754 5751 5748 5746 5744 5741 5739 5738 5736 5734 5733 5731 5730 5728 5727 5725 5724 5723 5722 5721 5720
5793 5793 5793 5793 5793 5793 5792 5792 5792 5791 5790 5787 5784 5782 5779 5776 5774 5771 5766 5763 5759 5756 5753 5749 5746 5744 5741 5739 5737 5735 5733 5732 5730 5728 5726 5725 5723 5722 5721 5719 5718 5717 5716 5716
5792 5792 5792 5792 5792 5793 5791 5791 5790 5789 5787 5785 5782 5780 5777 5774 5771 5767 5764 5760 5756 5752 5749 5746 5743 5740 5737 5735 5733 5731 5729 5728 5726 5724 5723 5721 5720 5718 5717 5716 5714 5713 5713 5712
5792 5792 5792 5792 5793 5791 5790 5790 5789 5787 5786 5784 5781 5778 5775 5772 5769 5766 5762 5758 5754 5750 5746 5743 5740 5737 5734 5732 5731 5729 5727 5725 5723 5722 5720 5719 5717 5716 5714 5713 5711 5710 5710 5709
5791 5791 5791 5791 5790 5790 5790 5789 5787 5786 5785 5783 5780 5777 5774 5771 5768 5764 5760 5756 5752 5748 5744 5741 5738 5735 5732 5730 5729 5727 5725 5723 5722 5720 5718 5717 5715 5714 5712 5711 5709 5708 5707 5707
5791 5790 5790 5790 5790 5790 5789 5788 5787 5786 5784 5782 5779 5777 5774 5771 5767 5763 5759 5755 5751 5747 5743 5740 5737 5734 5731 5730 5728 5726 5724 5723 5721 5719 5717 5716 5715 5713 5711 5710 5708 5707 5706 5706
5790 5790 5790 5790 5790 5790 5789 5788 5787 5785 5783 5781 5779 5776 5773 5770 5767 5763 5759 5755 5751 5747 5743 5740 5736 5734 5731 5729 5727 5726 5724 5723 5721 5719 5717 5716 5715 5713 5711 5710 5708 5707 5706 5705